Regional Weather Roundup
Issued by NWS Upton, NY

Current Version | Previous Version | Graphics & Text | Print | Product List | Glossary Off
Versions: 1 2 3 4 5 6 7 8 9 10 11 12 13 14 15 16 17 18 19 20 21 22 23 24 25 26 27 28 29 30 31 32 33 34 35 36 37 38 39 40 41 42 43 44 45 46 47 48 49 50

549
ASUS41 KOKX 221505
RWROKX

Regional Weather Roundup
National Weather Service New York NY
1000 AM EST THU FEB 22 2018

Note: "FAIR" indicates few or no clouds below 12,000 feet with no
significant weather and/or obstructions to visibility.

NYZ071-072-176-178-NJZ106-104-221600-
New York City Metro Area

CITY           SKY/WX    TMP DP  RH WIND       PRES   REMARKS
Central Park   CLOUDY    45  36  70 VRB5      30.64R
Bronx Bot Gard   N/A     43  36  75 CALM      30.61F
Bronx Lehman C   N/A     43  37  81 N5          N/A
LaGuardia Arpt CLOUDY    46  36  68 NE12      30.60R
Queens College   N/A     45  36  70 NE10        N/A
Kennedy Intl   CLOUDY    46  36  68 NE14      30.61R
Breezy Point     N/A     43 N/A N/A NE12        N/A
Brooklyn Coll    N/A     45  34  65 N13         N/A
Staten Island    N/A     43  37  81 N9          N/A
Newark/Liberty LGT RAIN  44  37  76 N15       30.61R
Teterboro      LGT RAIN  44  36  73 N7G20     30.61R
$$

NYZ177-179-078>081-221600-
Long Island New York

CITY           SKY/WX    TMP DP  RH WIND       PRES   REMARKS
Jones Beach      N/A     45 N/A N/A NE18        N/A
Wantagh          N/A     46  32  57 NE14        N/A
Hempstead        N/A     45  37  76 N6        30.61R
Matinecock Pt    N/A     41 N/A N/A E8          N/A
Farmingdale    CLOUDY    45  33  63 NE12      30.59R
MacArthur/ISP  LGT RAIN  44  35  70 NE12      30.60R
Shirley        LGT RAIN  45  32  60 VRB5      30.60R
Mt Sinai Harb    N/A     41 N/A N/A E3          N/A
Westhampton    CLOUDY    45  33  63 NE10      30.60R
East Hampton   DRIZZLE   42  35  76 E10       30.60R
Southold         N/A     43  36  75 E10         N/A
Montauk        NOT AVBL
$$

NYZ052-065-067-221600-
Hudson Valley

CITY           SKY/WX    TMP DP  RH WIND       PRES   REMARKS
White Plains   LGT RAIN  43  34  70 N9        30.60R
Larchmont Harb   N/A     43 N/A N/A N7          N/A
Croton On Huds   N/A     43 N/A N/A NW8         N/A
Somers           N/A     41  32  70 N6          N/A
Brewster         N/A     39  32  75 N9          N/A  WCI  33
Newburgh       LGT RAIN  37  34  87 NE7       30.66R WCI  32
Montgomery     LGT RAIN  38  32  79 NE10      30.63R WCI  31
Otisville        N/A     36  34  93 NE2         N/A
Warwick          N/A     39  32  75 N7          N/A  WCI  34
Suffern          N/A     41  32  70 N7          N/A
Poughkeepsie   CLOUDY    38  32  79 N9        30.66R WCI  31
Albany         CLOUDY    35  18  49 N7        30.71R WCI  29
$$

NJZ001-105-106-008-010-013-015-019>022-104-221600-
New Jersey

CITY           SKY/WX    TMP DP  RH WIND       PRES   REMARKS
Newark/Liberty LGT RAIN  44  37  76 N15       30.61R
Teterboro      LGT RAIN  44  36  73 N7G20     30.61R
Caldwell       LGT RAIN  42  37  82 NE5       30.62R
Somerville     CLOUDY    43  38  82 N7        30.58R
Linden         DRIZZLE   44  36  73 NE10      30.61R
Perth Amboy      N/A     43 N/A N/A NE9         N/A
Sussex         CLOUDY    39  33  79 NE9       30.62S WCI  33
Andover          N/A     40  31  70 NE10G18   30.59S WCI  33
Trenton        LGT RAIN  45  38  76 NE12      30.56F
Millville      CLOUDY    53  42  66 E15       30.52R
Atlantic City  CLOUDY    49  41  74 NE18G26   30.54R
Wrightstown    CLOUDY    46  41  80 E16       30.54
Toms River     LGT RAIN  44  42  93 NE15      30.58R FOG
Belmar         LGT RAIN  44  40  85 NE8       30.59R
$$

PAZ047>061-062-071-221600-
Eastern Pennsylvania

CITY           SKY/WX    TMP DP  RH WIND       PRES   REMARKS
Philadelphia   CLOUDY    47  40  76 NE13G22   30.54F
Allentown      CLOUDY    43  34  70 N9        30.60R
Scranton       RAIN      37  36  96 N5        30.60S FOG     WCI  33
$$

CTZ002-004>006-009-010-012-RIZ004-006-007-MAZ004-011-015-221600-
Southern New England

 In CT

CITY           SKY/WX    TMP DP  RH WIND       PRES   REMARKS
Bradley Intl   CLOUDY    42  20  41 N12       30.64R
Hartford       CLOUDY    43  23  45 N14       30.63R
Danbury        CLOUDY    43  29  57 N12       30.63R
Wtrbury/Oxford CLOUDY    41  26  55 NE14      30.59F
Norwalk Harbor   N/A     43 N/A N/A N9          N/A
Bridgeport     CLOUDY    46  31  55 NE12      30.60R
Meriden        CLOUDY    43  26  51 N9        30.62R
New Haven      CLOUDY    46  28  49 N12       30.60R
Chester        CLOUDY    45  30  57 MISG      30.59S
Groton         LGT RAIN  46  31  55 NE7       30.60R
Willimantic    CLOUDY    45  21  38 NE9       30.62R

 In RI

CITY           SKY/WX    TMP DP  RH WIND       PRES   REMARKS
Providence     CLOUDY    45  28  51 NE12      30.62F
Block Island   CLOUDY    40  35  83 NE13      30.61R WCI  32
Westerly       LGT RAIN  45  36  70 VRB3      30.63R

In MA

CITY           SKY/WX    TMP DP  RH WIND       PRES   REMARKS
Boston         CLOUDY    40  27  59 E16       30.64S WCI  31
Worcester      CLOUDY    37  16  42 N7        30.60F WCI  32
Westfield      LGT RAIN  39  29  67 N9        30.66R WCI  33
Provincetown   CLOUDY    41  30  65 NE14      30.65R
Nantucket      CLOUDY    43  35  73 NE16G24   30.59S
$$

ANZ330-335-338-340-345-350-353-355-221600-
Coastal Marine Observations


STATION/POSITION TIME  SKY/WX   TEMP    WIND        PRES    VSBY  WAVE
                                AIR SEA DIR/SP/G                  HT/PER
                 (UTC)          (F)     (DEG/KT/KT) (MB)    (MI)  (FT/S)
NY Harb Entrance 1450            43 42   70/ 10/ 14 1035.6          3/ 6
20 S Fire Island 1450            45 43   60/ 16/ 21 1035.0          3/14
15 E Barnegat Li 1430               42                N/A           3/13
Hudson Canyon    1450            46 47   70/ 19/ 25 1032.1          6/ 5
Kings Point      1424            43 39   60/  7/ 10 1037.1
Execution Rocks  NOT AVBL
Western LI Sound NOT AVBL
Central LI Sound 1445            41      70/  6/  8   N/A           0
Robbins Reef     1430            44      20/ 10/ 18 1036.0
$$


>>>>>>>>>>>>>>>>>>>>>>>>>>>> KEY <<<<<<<<<<<<<<<<<<<<<<<<<<<
>                                                          <
>     SKY/WX - Sky Condition/Present Weather               <
>     TMP    - Temperature in Fahrenheit                   <
>     DP     - Dew Point in Fahrenheit                     <
>     RH     - Relative Humidity in Percent                <
>     WIND   - Direction (from) and Speed in MPH           <
>     PRES   - Mean Sea Level Pressure (inches of Hg)      <
>     WCI    - Wind Chill Index                            <
>     VSB    - Visibility in Miles                         <
>     HX     - Heat Index                                  <
>     TC     - Temperature in Celsius                      <
>     VRB    - Varibale Wind Direction                     <
>                                                          <
>>>>>>>>>>>>>>>>>>>>>>>>>>>> KEY <<<<<<<<<<<<<<<<<<<<<<<<<<<




USA.gov is the U.S. government's official web portal to all federal, state and local government web resources and services.